Location: Melque
(41.0517°N, 4.4694°W)
Time: 05:31:53
(UTC+00:00)

CZ-4C R/B - Pass Details

Date: 11 December 2025
Orbit: 485 x 1495 km, 63.4° (Epoch: 13 January)

Event Time Altitude Azimuth Distance (km) Brightness Sun altitude
Rises 17:39:21 0° 326° (NW) 3,766 5.7 -9.2°
Reaches altitude 10° 17:41:45 10° 328° (NNW) 2,945 5.1 -9.7°
Maximum altitude 17:49:02 75° 54° (NE) 1,327 3.0 -10.9°
Drops below altitude 10° 17:57:54 10° 140° (SE) 3,554 5.2 -12.5°
Sets 18:01:02 0° 142° (SE) 4,582 5.8 -13.1°
